Location: Peterborough
(44.3091°N, 78.3197°W)
Time: 17:06:17
(UTC-04:00)

Explorer 7 - Pass Details

Date: 30 March 2023
Orbit: 477 x 653 km, 50.3° (Epoch: 04 June)

Event Time Altitude Azimuth Distance (km) Brightness Sun altitude
Rises 18:07:00 0° 272° (W) 2,913 12.2 15.4°
Reaches altitude 10° 18:09:29 10° 280° (W) 1,980 11.3 14.9°
Maximum altitude 18:13:46 40° 350° (N) 884 8.1 14.2°
Drops below altitude 10° 18:17:51 10° 61° (ENE) 1,875 9.0 13.4°
Sets 18:20:09 0° 70° (ENE) 2,739 9.8 13.0°
